Regional Weather Roundup
Issued by NWS Wakefield, VA

Home | Current Version | Previous Version | Graphics & Text | Print | Product List | Glossary On
Versions: 1 2 3 4 5 6 7 8 9 10 11 12 13 14 15 16 17 18 19 20 21 22 23 24 25 26 27 28 29 30 31 32 33 34 35 36 37 38 39 40 41 42 43 44 45 46 47 48 49 50
000
ASUS41 KAKQ 022315
RWRAKQ

REGIONAL WEATHER ROUNDUP
NATIONAL WEATHER SERVICE WAKEFIELD VA
700 PM EDT THU JUL 02 2015

Note: "fair" indicates few or no clouds below 12,000 feet with no
significant weather and/or obstructions to visibility. * = Denotes
station may not report precipitation (e.g., rain,snow,etc.),
thunder or fog.

VAZ042-051-052>054-056-030000-
NORTHERN VIRGINIA

CITY           SKY/WX    TMP DP  RH WIND       PRES   REMARKS
WASH NATIONAL  CLOUDY    76  66  71 N3        29.88F
DULLES         CLOUDY    72  62  71 NE5       29.89S
FORT BELVOIR   CLOUDY    72  67  84 CALM      29.88S
QUANTICO       CLOUDY    75  63  66 CALM      29.89
FREDERICKSBRG* CLOUDY    76  65  70 N3        29.87F
STAFFORD*      CLOUDY    72  64  76 CALM      29.92F
WARRENTON      CLOUDY    73  67  83 CALM      29.88S
CULPEPER*      CLOUDY    72  66  83 CALM      29.89F
MANASSAS*      SUNNY     73  64  73 NE3       29.89S
LEESBURG*      CLOUDY    72  68  88 CALM      29.90S
WINCHESTER     CLOUDY    73  66  78 S3        29.89F
FRONT ROYAL*   FAIR      70  66  88 CALM      29.89S
LURAY*         FAIR      73  64  73 CALM      29.91S
$$

VAZ048-049-060>072-079>083-030000-
CENTRAL AND SOUTH CENTRAL VIRGINIA

CITY           SKY/WX    TMP DP  RH WIND       PRES   REMARKS
RICHMOND       CLOUDY    75  67  76 N7        29.88S
CHESTERFIELD*  NOT AVBL
PETERSBURG*    LGT RAIN  76  75  98 N3        29.89R
HANOVER        CLOUDY    73  66  78 CALM      29.90S
TAPPAHANNOCK*  LGT RAIN  73  62  68 N3        29.89S
QUINTON*       MOCLDY    72  68  88 CALM      29.88S
CHARLOTTSVILLE CLOUDY    74  66  76 E5        29.88F
GORDONSVILLE*  FAIR      72  64  78 CALM      29.89S
ORANGE*        CLOUDY    73  66  78 CALM      29.91S
LOUISA*        CLOUDY    73  64  73 CALM      29.88F
BUMPASS*       FAIR      73  67  82 CALM      29.88F
FARMVILLE*     CLOUDY    75  65  69 NE5       29.88S
CREWE*         FAIR      73  67  81 CALM      29.89S
FORT PICKETT*  FAIR      73  68  86 N5        29.89S
CHASE CITY*    FAIR      76  75  96 CALM      29.89S
CLARKSVILLE*   FAIR      75  70  83 CALM      29.88F
SOUTH HILL*    CLOUDY    72  71  96 CALM      29.94F
LAWRENCEVILLE* NOT AVBL
EMPORIA*       LGT SNOW  70  70 100 CALM      29.90S
$$

VAZ088>098-030000-
SOUTHEAST VIRGINIA

CITY           SKY/WX    TMP DP  RH WIND       PRES   REMARKS
NORFOLK        CLOUDY    75  69  81 N10       29.86R
VIRGINIA BEACH LGT RAIN  78  71  79 N16G28    29.85R
NORFOLK NAVAL  LGT RAIN  74  70  87 N12       29.88R FOG
WEST POINT*    CLOUDY    74  70  87 CALM      29.89R
SALUDA*        CLOUDY    73  70  92 N9        29.87R
NEWPORT NEWS   HVY RAIN  72  71  97 CALM      29.88R FOG
LANGLEY AFB    LGT RAIN  73  70  88 NW7       29.86R FOG
FORT EUSTIS    LGT RAIN  73  73 100 N5        29.85R FOG
WILLIAMSBURG*    N/A     75  73  94 N3        29.88R
HR EXEC AP*    CLOUDY    75  70  83 N6        29.88R
FRANKLIN*      RAIN      71  70  95 W8        29.88R
WAKEFIELD      RAIN      74  72  93 CALM      29.88R FOG
$$

VAZ020-022-025-037-045-030000-
WEST CENTRAL AND SOUTHWEST VIRGINIA

CITY           SKY/WX    TMP DP  RH WIND       PRES   REMARKS
STAUNTON*      CLOUDY    74  64  72 CALM      29.94R
WAYNESBORO*    MOCLDY    71  62  75 NW5       29.93S
HOT SPRINGS VA MOSUNNY   65  60  85 W3        30.00S
LYNCHBURG      CLOUDY    73  65  75 E5        29.92R
DANVILLE       CLOUDY    76  68  76 N3        29.89F
SOUTH BOSTON*  CLOUDY    75  70  85 MISG      29.89S
MARTINSVILLE   PTSUNNY   72  72 100 NW5       29.95R
ROANOKE        CLOUDY    75  63  66 NE6       29.94S
BLACKSBURG     PTSUNNY   72  65  78 E5        29.99S
DUBLIN*        PTSUNNY   71  67  86 CALM      29.98S
MARION*        CLOUDY    70  65  82 SW7       30.01R
HILLSVILLE*    MOSUNNY   70  65  83 N5        29.98S
RICHLANDS*     CLOUDY    70  64  83 CALM      29.98S
WISE*          CLOUDY    72  61  68 SW7       29.99S
ABINGDON*      CLOUDY    74  67  80 W6        29.97R
$$

MDZ021>025-VAZ099-100-030000-
SOUTHERN MARYLAND AND THE DELMARVA PENINSULA

CITY           SKY/WX    TMP DP  RH WIND       PRES   REMARKS
PATUXENT RIVER CLOUDY    73  63  70 N6        29.88S
BAY BRIDGE APT   N/A     72  64  78 CALM      29.88S
LEONARDTOWN    CLOUDY    70  63  78 CALM      29.90S
DOVER          CLOUDY    70  68  94 N1        29.85F
GEORGETOWN     CLOUDY    71  67  87 N5        29.87S
EASTON         NOT AVBL
CAMBRIDGE      CLOUDY    72  64  78 CALM      29.87S
SALISBURY      CLOUDY    72  67  84 N6        29.86S
OCEAN CITY     NOT AVBL
WALLOPS ISLAND CLOUDY    72  71  97 N7        29.86S FOG
ACCOMACK*      LGT RAIN  73  73 100 CALM      29.85S
$$

NCZ012>017-030>032-030000-
NORTH CENTRAL AND EASTERN NORTH CAROLINA

CITY           SKY/WX    TMP DP  RH WIND       PRES   REMARKS
ROANOKE RAPIDS MOCLDY    73  72  94 W3        29.88R
RALEIGH        RAIN      74  70  87 N10G16    29.89R FOG
ELIZABETH CITY PTSUNNY   84  67  56 W7        29.84R
AHOSKIE*       PTSUNNY   76  71  86 CALM      29.87S
EDENTON*         N/A     86  69  57 W5        29.84S
CURRITUCK*     CLOUDY    86  62  44 SW7       29.84R
KILL DEVIL HLS MOSUNNY   86  70  58 SW7       29.82F
MANTEO         MOSUNNY   85  73  66 SW18      29.84S
CAPE HATTERAS  SUNNY     81  73  76 SW15      29.89S
TARBORO*       HVY RAIN  82  69  65 N8        29.87R
GOLDSBORO      MOSUNNY   85  73  67 S5        29.82F
WASHINGTON     PTSUNNY   83  69  62 SW7       29.86R
GREENVILLE     MOSUNNY   86  70  58 SW6       29.88S
NEW BERN       PTSUNNY   84  75  74 SW10      29.88R
WILMINGTON     SUNNY     84  71  65 SW18G28   29.89R
$$

VAZ048-030000-
ELSEWHERE

CITY           SKY/WX    TMP DP  RH WIND       PRES   REMARKS
HARRISBURG PA  CLOUDY    73  65  75 VRB3      29.87S
BALTIMORE      CLOUDY    72  64  76 CALM      29.88S
ANNAPOLIS      CLOUDY    73  63  70 CALM      29.87F
ANDREWS AFB    CLOUDY    71  67  86 VRB3      29.88S
PHILADELPHIA   LGT RAIN  74  64  71 S3        29.88R
HENDERSON NC   LGT RAIN  72  68  88 CALM      29.89F
GREENSBORO     CLOUDY    76  67  73 NE6       29.90R
ROCKY MOUNT    HVY RAIN  80  70  71 W8G20     29.86R
$$

VAZ100-030000-
MARINE

STATION/POSITION TIME  TEMP    WIND        PRES    WAVE   SWELL
                       AIR SEA DIR/SP/G            HT/PER HT/PER
                 (UTC) (F)     (DEG/KT/KT) (MB)    (FT/S) (FT/S)
BRANDYWINE LGT   2200   70 74   40/  9/ 10 1011.7F
CAPE MAY NJ      2200   70 77   30/  3/  5 1010.8F
LEWES DE         2200   70 73   80/  6/  7 1011.1F
15NM E FENWICK I 2250   71 73              1010.0F   4/ 8
OCEAN-CITY-INLET 2200   71 76   40/  6/ 11 1010.8F
WACHAPREAGUE VA  2200   73 82     CALM     1010.8F
THOMAS POINT MD  2300   72 76   70/  3/  3 1012.2F
GOOSES REEF MD   2300   73 78   60/  4/  6 1012.6F
COVE POINT MD    2200   72      20/  9/ 13 1012.6R
SOLOMONS ISLAND  2200      79                N/A
BISHOPS HEAD MD  2200   73      20/  6/ 11 1011.2R
PINEY POINT MD   2200           20/  8/  9   N/A
CAMBRIDGE MD     2200   72 79   10/  6/ 10 1011.5S
LEWISETTA VA     2200   74 81   20/  7/ 12 1011.2S
RAPPAHANNOCK LGT 2200           10/  5/  5 1011.1F
STINGRAY PT      2300   76 80   10/ 12/ 14 1011.2R   1/ 2
YORK RVR RNG VA  2200   74     340/  9/ 11 1010.3R
YORKTOWN VA      2200   73 80  300/  6/ 12 1010.6R
JAMESTOWN VA     2300   73 83  360/  6/ 10   N/A
DOMINION TERM VA 2200   78      10/ 13/ 17 1010.5R
KIPTOPEKE VA     2200      84   20/  5/ 11   N/A
CHES BAY BRIDGE  2200   76 79  360/ 15/ 16 1009.8R
CAPE HENRY VA    2200   76     360/ 19/ 21 1008.4F
CHESAPEAKE LGHT  2200   78     220/ 15/ 16 1010.4F
WILLOUBY STN VA  2200   76     350/ 16/ 20 1011.5R
CAPE HENRY BUOY  2228      78                N/A     3/ 8
1ST LANDING BUOY 2300      79              1011.1R   2/ 3
CAPE CHARLES BUO 2226      71                N/A     2/ 8   2/ 8
OFFSHORE WE BUOY 2211      78                N/A     4/ 8   2/ 8
64NM E OF VA BCH 2250   80 77  220/ 17/ 21 1009.6S   5/ 5   2/ 8
DUCK PIER NC     2200   86 62  230/ 12/ 18 1009.2F
44100 DUCK FRF   2224      78                N/A     3/ 8
44056 DUCK FRF   2211      71                N/A     2/ 8
OREGON INLET NC  2200   82 82  200/ 22/ 26 1010.6F
HATTERAS NC      2200   81 80  210/ 13/ 18 1011.6F
DIAMOND SHLS NC  2250   83 83  220/ 25/ 29 1011.7S   6/ 6   2/ 8
CAPE LOOKOUT NC  2300   82     210/ 16/ 20 1012.1F
$$


USA.gov is the U.S. government's official web portal to all federal, state and local government web resources and services.